Starlink 1202

operational
NORAD ID: 45183 Int'l Des: 2020-012 Owner: SPXS Country: US Constellation: starlink
LEOCIRCULARSTARLINK_TYPE

About Starlink 1202

Description loading...

Live Position

Loading 3D Globe...

Upcoming Passes

Altitude History

Altitude vs Time

uPlot chart will show altitude changes over time

Two-Line Element Set

1 45183U 20012F 25306.18805323 .00001074 00000-0 91002-4 0 9990
2 45183 53.0543 258.9985 0001528 96.0685 264.0478 15.06384467315621
Epoch: Nov 2, 2025 • Age: 14 hours

Current Status

Altitude 548.0 km
Velocity 7.59 km/s
Sub-Earth Point -0.05°S, 123.53°E
Launch Date Feb 17, 2020
Age 5.7 years
Type internet

Technical Details

Classification Payload
Mass 260.00 kg
Dry Mass 248.00 kg
Total Mass 260.00 kg
Length 0.20 m
Diameter 2.80 m
Span 9.00 m
Shape Box + pan
Manufacturer SPXS
Bus Type Starlink
Phase Status In Orbit
Owner/State SPXS/US

Large Constellations

Loading constellations...